Regional Weather Roundup
Issued by NWS

Home | Current Version | Previous Version | Text Only | Print | Product List | Glossary Off
Versions: 1 2 3 4 5 6 7 8 9 10 11 12 13 14 15 16 17 18 19 20 21 22 23 24 25 26 27 28 29 30 31 32 33 34 35 36 37 38 39 40 41 42 43 44 45 46 47 48 49 50

862
ASUS45 KPSR 250810
RWRAZ

ARIZONA HOURLY REGIONAL WEATHER ROUNDUP
NATIONAL WEATHER SERVICE PHOENIX AZ
100 AM MST MON JUL 25 2016

NOTE: FAIR INDICATES FEW OR NO CLOUDS BELOW 12,000 FEET WITH NO
SIGNIFICANT WEATHER AND/OR OBSTRUCTIONS TO VISIBILITY.

AZZ001>003-036-250900-
NORTHWEST ARIZONA

CITY           SKY/WX    TMP DP  RH WIND       PRES   REMARKS
BULLHEAD CITY  CLEAR     95  57  28 S5        29.78R
KINGMAN          N/A     83  53  35 SE8       30.02R
$$

AZZ004>008-015-016-018-250900-
NORTH CENTRAL ARIZONA

CITY           SKY/WX    TMP DP  RH WIND       PRES   REMARKS
GRAND CANYON   CLEAR     55  50  83 CALM      30.29S
WILLIAMS       CLEAR     59  54  82 SE10      30.38R
PRESCOTT       CLEAR     74  56  53 SE6       30.18R
FLAGSTAFF      PTCLDY    59  46  62 CALM      30.33S
PAYSON         PTCLDY    75  46  35 CALM      30.21F
PAGE           PTCLDY    79  45  29 S5        30.08R
$$

AZZ009>014-017-250900-
NORTHEAST ARIZONA

CITY           SKY/WX    TMP DP  RH WIND       PRES   REMARKS
WINSLOW        CLOUDY    77  49  37 S9        30.14F
SAINT JOHNS    CLOUDY    71  54  54 S5        30.24S
WINDOW ROCK    MOCLDY    66  53  63 NW3       30.31F
SHOW LOW       CLOUDY    64  48  55 SE5       30.30S
$$

AZZ023-250900-
GREATER PHOENIX AREA

CITY           SKY/WX    TMP DP  RH WIND       PRES   REMARKS
PHOENIX        PTCLDY    94  64  37 W9        29.83R
BUCKEYE        PTCLDY    88  63  42 SW10      29.87S
LUKE AFB       PTCLDY    92  66  42 SW20G25   29.83R
DEER VALLEY    PTCLDY    91  63  39 SW12      29.87R
SCOTTSDALE     PTCLDY    92  63  38 W5        29.89R
MESA-GATEWAY   PTCLDY    90  63  40 S5        29.88R
$$

AZZ027-028-250900-
SOUTHWEST MARICOPA COUNTY AND PINAL COUNTY

CITY           SKY/WX    TMP DP  RH WIND       PRES   REMARKS
CASA GRANDE    CLEAR     90  63  40 S8        29.92R
GILA BEND      FAIR      90  61  37 SW13      29.84S
$$

AZZ503-504-507>509-250900-
SOUTHEAST ARIZONA

CITY           SKY/WX    TMP DP  RH WIND       PRES   REMARKS
TUCSON         CLOUDY    84  57  39 SE20G29   30.05R
DAVIS-MONTHAN  MOCLDY    82  58  44 SE21      30.04R
NOGALES        CLOUDY    74  58  57 SE17G26   30.16R
SIERRA VISTA   MOCLDY    69  56  63 S21G28    30.19F
DOUGLAS          N/A    N/A N/A N/A MISG      30.18F
SAFFORD        CLOUDY    81  55  40 E13       30.05R
$$

AZZ020-021-025-026-031-250900-
SOUTHWEST ARIZONA

CITY           SKY/WX    TMP DP  RH WIND       PRES   REMARKS
YUMA           PTCLDY    87  70  56 S12       29.82R
$$

CAZ031-033-041-043-047-048-061-250900-
SOUTHERN CALIFORNIA

CITY           SKY/WX    TMP DP  RH WIND       PRES   REMARKS
DOWNTOWN L.A.  PTCLDY    70  67  90 CALM      29.92S
L.A. AIRPORT   MOCLDY    71  66  84 VRB5      29.92S
SAN DIEGO      MOCLDY    69  66  90 CALM      29.93S
BURBANK        CLEAR     72  66  81 SE7       29.93R
ONTARIO        PTCLDY    74  60  61 W9        29.94R
RIVERSIDE      PTCLDY    74  61  63 W3        29.93S
PALM SPRINGS   CLEAR     91  52  26 E6        29.85R
EL CENTRO NAS  CLEAR     84  74  71 VRB5      29.79R
IMPERIAL       PTCLDY    88  76  67 SE10      29.77R
BLYTHE         CLEAR     89  67  47 S9        29.81S
NEEDLES        CLEAR     99  60  27 SW10      29.79S
$$

NVZ020-UTZ003-250900-
SOUTHERN NEVADA-UTAH

CITY           SKY/WX    TMP DP  RH WIND       PRES   REMARKS
LAS VEGAS      PTCLDY    97  28   8 S8        29.82R
SALT LAKE CITY CLEAR     74  41  30 S5        30.03S
$$

NMZ009-TXZ055-250900-
NEW MEXICO-WEST TEXAS

CITY           SKY/WX    TMP DP  RH WIND       PRES   REMARKS
ALBUQUERQUE    MOCLDY    72  56  57 E8        30.20F
EL PASO        MOCLDY    89  50  26 N17       30.04S
$$


........................KEY........................
SKY/WX - SKY CONDITION/WEATHER
TMP    - TEMPERATURE IN FAHRENHEIT
DP     - DEW POINT IN FAHRENHEIT
RH     - RELATIVE HUMIDITY IN PERCENT
WIND   - DIRECTION AND SPEED IN MILES PER HOUR (MPH)
VRB    - VARIABLE WIND DIRECTION
PRES   - MEAN SEA LEVEL PRESSURE IN INCHES OF MERCURY
         F - FALLING PRESSURE   R - RISING PRESSURE
         S - STEADY PRESSURE
VSB    - VISIBILITY IN MILES
HX     - HEAT INDEX IN FAHRENHEIT
WCI    - WIND CHILL INDEX IN FAHRENHEIT
TC     - TEMPERATURE IN CELSIUS WHICH IS ALSO KNOWN AS
         TEMPERATURE IN CENTIGRADE
AFB    - AIR FORCE BASE
         LUKE AFB IS LUKE AIR FORCE BASE
         DAVIS-MONTHAN IS DAVIS-MONTHAN AIR FORCE BASE
NAS    - NAVAL AIR STATION
         EL CENTRO NAS IS EL CENTRO NAVAL AIR STATION
N/A    - NOT AVAILABLE





USA.gov is the U.S. government's official web portal to all federal, state and local government web resources and services.